Date String (YYYY-MM-DD hh:mm:ss) UTC,Instrument flags,absolute air pressure of the measurement (hPa),sample flow rate (lpm),inlet stack bypass flow (lpm),air temperature of the measurement (°C),ambient temperature measured by the external sensor (°C),aerosol sample conditioner tube jacket temperature (°C),OPC LED temperature (°C),internal box temperature (°C),relative humidity of the measurement (%),span deviation,mass concentration of particles derived from Lorenz-Mie calculation of OPC scattering (μg/m³),mass concentration of particles derived from Lorenz-Mie calculation of OPC scattering (μg/m³),mass concentration of particles derived from Lorenz-Mie calculation of OPC scattering (μg/m³)
DateTimeUTC,F1_M11,P_M11,Q1_M11,Q2_M11,T1_M11,T2_M11,T3_M11,T4_M11,T5_M11,U1_M11,ZSPAN_M11,X0_M11,X2_M11,X1_M11
2023-07-05 02:00:00,SystemResetWarning,0834.5,5.01,000.00,031.1,025.5,000.0,039.0,030.9,34.4,0000.0,0011.05,0005.25,0004.19
2023-07-05 02:01:00,SystemResetWarning,0834.2,4.98,000.00,031.0,025.9,000.0,039.0,030.9,34.0,0000.0,0011.27,0005.30,0004.20
2023-07-05 02:02:00,SystemResetWarning,0834.1,5.00,000.00,030.9,026.3,000.0,039.0,031.0,33.4,0000.0,0011.03,0005.27,0004.19
2023-07-05 02:03:00,SystemResetWarning,0833.9,5.00,000.00,030.8,026.6,000.0,039.0,031.1,32.4,0000.0,0010.80,0005.21,0004.17
2023-07-05 02:04:00,SystemResetWarning,0833.8,5.01,000.00,030.8,027.0,000.0,039.1,031.1,31.6,0000.0,0010.46,0005.08,0004.10
2023-07-05 02:05:00,SystemResetWarning,0833.8,5.00,000.00,030.8,027.2,000.0,039.1,031.2,31.1,0000.0,0010.00,0004.97,0004.03
2023-07-05 02:06:00,SystemResetWarning,0834.0,5.00,000.00,030.8,027.5,000.0,039.1,031.2,30.7,0000.0,0009.66,0004.85,0003.96
2023-07-05 02:07:00,SystemResetWarning,0834.2,4.99,000.00,030.7,027.7,000.0,039.1,031.3,30.6,0000.0,0009.16,0004.66,0003.83
2023-07-05 02:08:00,SystemResetWarning,0834.5,5.01,000.00,030.7,027.9,000.0,039.1,031.3,30.5,0000.0,0008.16,0004.45,0003.71
2023-07-05 02:09:00,SystemResetWarning,0834.6,5.01,000.00,030.7,028.0,000.0,039.1,031.4,30.4,0000.0,0007.98,0004.29,0003.60
2023-07-05 02:10:00,SystemResetWarning,0834.8,5.00,000.00,030.7,028.1,000.0,039.1,031.4,30.4,0000.0,0008.16,0004.19,0003.48
2023-07-05 02:11:00,SystemResetWarning,0834.7,5.00,000.00,030.7,028.2,000.0,039.1,031.4,30.5,0000.0,0008.09,0004.06,0003.37
2023-07-05 02:12:00,SystemResetWarning,0835.2,4.99,000.00,030.7,028.3,000.0,039.0,031.5,30.5,0000.0,0007.73,0003.92,0003.25
2023-07-05 02:13:00,SystemResetWarning,0835.0,5.00,000.00,030.7,028.4,000.0,039.0,031.5,30.5,0000.0,0007.74,0003.84,0003.14
2023-07-05 02:14:00,SystemResetWarning,0835.2,5.00,000.00,030.7,028.4,000.0,039.1,031.5,30.7,0000.0,0007.61,0003.72,0003.00
2023-07-05 02:15:00,SystemResetWarning,0835.3,5.00,000.00,030.7,028.5,000.0,039.1,031.5,30.8,0000.0,0007.68,0003.68,0002.89
2023-07-05 02:16:00,SystemResetWarning,0835.3,5.00,000.00,030.7,028.6,000.0,039.1,031.6,30.9,0000.0,0007.78,0003.68,0002.81
2023-07-05 02:17:00,SystemResetWarning,0835.2,5.00,000.00,030.7,028.6,000.0,039.1,031.6,30.9,0000.0,0007.83,0003.67,0002.75
2023-07-05 02:18:00,SystemResetWarning,0835.2,5.01,000.00,030.7,028.7,000.0,039.1,031.6,31.0,0000.0,0008.16,0003.73,0002.75
2023-07-05 02:19:00,SystemResetWarning,0835.2,5.01,000.00,030.7,028.7,000.0,039.1,031.7,31.0,0000.0,0008.29,0003.74,0002.74
2023-07-05 02:20:00,SystemResetWarning,0835.2,5.00,000.00,030.7,028.7,000.0,039.1,031.7,30.9,0000.0,0008.34,0003.73,0002.72
2023-07-05 02:21:00,SystemResetWarning,0835.3,5.00,000.00,030.7,028.6,000.0,039.1,031.7,30.9,0000.0,0008.19,0003.76,0002.74
2023-07-05 02:22:00,SystemResetWarning,0835.2,4.99,000.00,030.7,026.8,000.0,038.9,031.5,30.9,0000.0,0008.17,0003.80,0002.73
2023-07-05 02:23:00,SystemResetWarning,0835.2,5.00,000.00,030.6,025.5,000.0,038.8,031.4,31.1,0000.0,0007.87,0003.74,0002.71
2023-07-05 02:24:00,SystemResetWarning,0835.3,5.01,000.00,030.5,025.2,000.0,038.8,031.0,31.3,0000.0,0007.74,0003.69,0002.70
2023-07-05 02:25:00,SystemResetWarning,0835.4,5.02,000.00,030.3,025.5,000.0,038.8,030.9,31.6,0000.0,0007.79,0003.70,0002.67
2023-07-05 02:26:00,SystemResetWarning,0835.5,5.00,000.00,030.2,026.0,000.0,038.8,030.9,31.9,0000.0,0007.65,0003.64,0002.63
2023-07-05 02:27:00,SystemResetWarning,0835.5,5.00,000.00,030.2,026.4,000.0,038.8,031.0,32.0,0000.0,0007.71,0003.63,0002.60
2023-07-05 02:28:00,SystemResetWarning,0835.6,5.01,000.00,030.1,026.8,000.0,038.7,031.1,32.2,0000.0,0007.70,0003.62,0002.58
2023-07-05 02:29:00,SystemResetWarning,0835.6,5.01,000.00,030.1,027.1,000.0,038.7,031.1,32.3,0000.0,0007.43,0003.57,0002.56
2023-07-05 02:30:00,SystemResetWarning,0835.6,5.00,000.00,030.1,027.4,000.0,038.7,031.2,32.3,0000.0,0007.72,0003.57,0002.55
2023-07-05 02:31:00,SystemResetWarning,0835.7,4.97,000.00,030.1,027.6,000.0,038.7,031.2,32.3,0000.0,0007.79,0003.55,0002.54
2023-07-05 02:32:00,SystemResetWarning,0835.8,5.01,000.00,030.1,027.8,000.0,038.7,031.2,32.4,0000.0,0007.67,0003.52,0002.52
2023-07-05 02:33:00,SystemResetWarning,0835.8,5.01,000.00,030.1,028.0,000.0,038.7,031.3,32.5,0000.0,0007.40,0003.45,0002.52
2023-07-05 02:34:00,SystemResetWarning,0835.9,4.99,000.00,030.1,028.1,000.0,038.6,031.3,32.5,0000.0,0007.33,0003.44,0002.54
2023-07-05 02:35:00,SystemResetWarning,0835.9,4.99,000.00,030.1,028.2,000.0,038.6,031.3,32.4,0000.0,0007.32,0003.44,0002.55
2023-07-05 02:36:00,SystemResetWarning,0835.9,5.00,000.00,030.1,028.3,000.0,038.6,031.4,32.5,0000.0,0007.49,0003.45,0002.58
2023-07-05 02:37:00,SystemResetWarning,0836.0,5.00,000.00,030.1,028.4,000.0,038.6,031.4,32.4,0000.0,0007.62,0003.48,0002.63
2023-07-05 02:38:00,SystemResetWarning,0836.0,5.01,000.00,030.1,028.4,000.0,038.6,031.4,32.3,0000.0,0007.56,0003.49,0002.68
2023-07-05 02:39:00,SystemResetWarning,0836.1,5.00,000.00,030.1,028.5,000.0,038.6,031.4,32.3,0000.0,0007.41,0003.48,0002.71
2023-07-05 02:40:00,SystemResetWarning,0836.1,4.99,000.00,030.2,028.5,000.0,038.6,031.5,32.2,0000.0,0007.34,0003.47,0002.75
2023-07-05 02:41:00,SystemResetWarning,0836.1,5.00,000.00,030.2,028.6,000.0,038.7,031.5,32.3,0000.0,0007.14,0003.52,0002.83
2023-07-05 02:42:00,SystemResetWarning,0836.1,4.99,000.00,030.2,028.6,000.0,038.7,031.5,32.1,0000.0,0006.68,0003.57,0002.94
2023-07-05 02:43:00,SystemResetWarning,0836.2,5.00,000.00,030.2,028.7,000.0,038.7,031.5,31.9,0000.0,0006.85,0003.64,0003.06
2023-07-05 02:44:00,SystemResetWarning,0836.1,5.02,000.00,030.2,028.7,000.0,038.7,031.6,31.8,0000.0,0006.85,0003.68,0003.13
2023-07-05 02:45:00,SystemResetWarning,0836.1,5.00,000.00,030.2,028.7,000.0,038.7,031.6,31.7,0000.0,0006.93,0003.73,0003.17
2023-07-05 02:46:00,SystemResetWarning,0836.2,4.99,000.00,030.2,028.8,000.0,038.7,031.6,31.5,0000.0,0007.18,0003.81,0003.23
2023-07-05 02:47:00,SystemResetWarning,0836.2,5.00,000.00,030.2,028.8,000.0,038.7,031.6,31.5,0000.0,0006.96,0003.86,0003.29
2023-07-05 02:48:00,SystemResetWarning,0836.3,5.02,000.00,030.3,028.8,000.0,038.7,031.7,31.4,0000.0,0006.77,0003.89,0003.34
2023-07-05 02:49:00,SystemResetWarning,0836.3,5.00,000.00,030.3,028.8,000.0,038.7,031.7,31.4,0000.0,0007.02,0003.97,0003.41
2023-07-05 02:50:00,SystemResetWarning,0836.2,4.99,000.00,030.3,028.5,000.0,038.7,031.6,31.5,0000.0,0007.05,0004.01,0003.49
2023-07-05 02:51:00,SystemResetWarning,0836.2,4.99,000.00,030.2,026.4,000.0,038.6,031.4,31.6,0000.0,0007.32,0004.11,0003.55
2023-07-05 02:52:00,SystemResetWarning,0836.3,5.00,000.00,030.1,025.3,000.0,038.5,031.2,31.9,0000.0,0007.50,0004.19,0003.60
2023-07-05 02:53:00,SystemResetWarning,0836.2,5.01,000.00,030.0,025.2,000.0,038.4,030.9,32.3,0000.0,0007.47,0004.22,0003.64
2023-07-05 02:54:00,SystemResetWarning,0836.3,5.00,000.00,029.8,025.6,000.0,038.4,030.8,32.5,0000.0,0007.51,0004.26,0003.69
2023-07-05 02:55:00,SystemResetWarning,0836.3,5.00,000.00,029.8,026.0,000.0,038.4,030.9,32.5,0000.0,0007.68,0004.34,0003.74
2023-07-05 02:56:00,SystemResetWarning,0836.4,5.01,000.00,029.7,026.4,000.0,038.4,030.9,32.6,0000.0,0008.16,0004.44,0003.81
2023-07-05 02:57:00,SystemResetWarning,0836.4,5.00,000.00,029.7,026.8,000.0,038.4,031.0,32.5,0000.0,0009.46,0004.45,0003.85
2023-07-05 02:58:00,SystemResetWarning,0836.4,5.00,000.00,029.7,027.1,000.0,038.4,031.0,32.5,0000.0,0009.42,0004.47,0003.89
2023-07-05 02:59:00,SystemResetWarning,0836.4,5.00,000.00,029.7,027.4,000.0,038.4,031.1,32.5,0000.0,0009.55,0004.54,0003.93
